www.pogodaiklimat.ru

Погода и климат >> Архив погоды >> Россия >> Нижегородская область >> Нижний Новгород


АРХИВ ПОГОДЫ в Нижнем Новгороде

Время (UTC), дата Ветер
(напр.,м/с)
 
Видим.   Явления Облачность Т
(С)
Тd
(С)
f
(%)
Тe
(С)
Тes
(С)
Комфортность P
(гПа)
Po
(гПа)
Тmin
(С)
Tmax
(С)
R
(мм)
R24
(мм)
S
(см)
06 22.04 Ю 2-5
{7}
10 км 8/0
[Ci fib]
+4.4 -3.8 55 +2 +8 прохладно 1000.9 981.8
09 22.04 Ю 3-6
{7}
10 км 9/0
[Ac trans Cc]
+6.6 -3.6 48 +4 +10 прохладно 999.8 980.8
12 22.04 Ю 3-7
{8}
10 км 9/5 1000 м
[Sc Ac trans]
+7.4 -3.6 46 +5 +7 холодно 998.8 979.8
15 22.04 ЮВ 3-6
{8}
10 км 8/0
[Ac trans Cc]
+6.6 -2.1 54 +4 +5 прохладно 997.8 978.8 +7.7
18 22.04 ЮВ 3-5
{8}
10 км 3/0
[Ac trans]
+3.2 -0.6 76 -1 -1 очень
холодно
997.4 978.2
21 22.04 Ю 3-6
{8}
10 км слабый дождь 10/6 600 м
[Sc As op]
+2.2 +0.3 87 -2 -2 холодно 995.3 976.1
00 23.04 ЮЗ 1-5
{8}
10 км {дождь} 9/0
[Ac trans]
+2.7 +1.4 91 +1 +1 по сезону 994.8 975.7
03 23.04 ЮЗ 2-8
{8}
10 км 9/4 600 м
[Sc Ac trans]
+3.6 +1.0 83 +1 +1 прохладно 996.3 977.2 +2.2 2 0
06 23.04 ЮЗ 2-7
{9}
10 км 9/9 600 м
[Sc]
+4.9 -0.4 69 +3 +3 прохладно 998.0 979.0
09 23.04 ЮЗ 3-9
{13}
10 км 8/8 600 м
[Sc diur, vesp]
+8.3 -3.3 44 +6 +8 прохладно 999.6 980.7
12 23.04 ЮЗ 5-12
{14}
10 км {ливн. осадки} 8/8 600 м
[Cb cap]
+9.3 -6.4 32 +7 +8 прохладно 1000.6 981.8
15 23.04 -12
{14}
10 км н/о +8.7 -6.7 33 +6 +7 прохладно 1002.7 983.8 +10.3
18 23.04 ЮЗ 2-5
{13}
10 км ясно +5.9 -6.7 40 +4 +4 прохладно 1005.1 986.0
21 23.04 ЮЗ 2-5
{5}
10 км ясно +4.7 -5.7 47 +3 +3 по сезону 1006.8 987.5
00 24.04 штиль 0
{5}
10 км 4/0
[Ci fib]
+2.0 -4.5 62 +1 +1 прохладно 1007.9 988.4
03 24.04 штиль 0
{2}
10 км 9/0
[Cs]
+1.5 -4.0 67 +1 +2 прохладно 1007.6 988.1 -0.2 0
06 24.04 СВ 2-4
{4}
10 км 10/0
[As op]
+5.1 -1.4 63 +3 +4 прохладно 1006.7 987.5
09 24.04 СВ 2-4
{4}
10 км 10/3 600 м
[Sc As op]
+7.3 -1.4 54 +6 +7 прохладно 1006.2 987.2
12 24.04 С 2-4
{6}
10 км 10/4 600 м
[Sc As op]
+8.1 -3.8 43 +7 +8 прохладно 1004.8 985.8
15 24.04 СВ 2-4
{5}
10 км 10/6 600 м
[Sc As op]
+7.6 -4.4 42 +6 +6 прохладно 1004.5 985.5 +8.4
18 24.04 СВ 1-2
{4}
10 км 10/0
[As op Cs]
+5.7 -3.0 54 +5 +5 по сезону 1005.2 986.1
21 24.04 штиль 0
{2}
10 км 10/5 600 м
[Sc As op]
+4.3 -2.8 60 +4 +4 по сезону 1005.8 986.6
00 25.04 З 1-3
{3}
10 км 10/6 600 м
[Sc As op]
+3.5 -1.5 70 +2 +2 по сезону 1006.9 987.5
03 25.04 З 1-3
{3}
10 км 10/0
[As op Ci sp]
+2.7 -1.8 72 +1 +2 прохладно 1008.5 989.0 +2.5
06 25.04 З 2-4
{5}
10 км 9/5 600 м
[Sc Ci sp]
+5.7 -1.3 61 +4 +7 прохладно 1010.7 991.5
09 25.04 З 2-4
{7}
10 км 8/3 600 м
[Cb cap Ac trans]
+6.7 -0.6 60 +5 +10 прохладно 1012.6 993.3
12 25.04 З 1-3
{7}
10 км слабый дождь {ливн. осадки} 9/5 300 м
[Cb cap Ac trans]
+5.4 +1.4 75 +4 +7 очень
холодно
1014.8 995.5
15 25.04 СЗ 1-4
{9}
10 км {ливн. осадки} 3/0
[Ac trans]
+7.0 +1.1 66 +6 +7 прохладно 1016.3 997.1 +7.4 2
18 25.04 штиль 0
{5}
10 км {ливн. осадки} ясно +4.3 -0.2 73 +4 +4 прохладно 1018.7 999.2
21 25.04 Ю 1-3
{2}
10 км ясно +3.5 -0.9 73 +2 +2 прохладно 1019.5 999.9
00 26.04 ЮВ 1-2
{3}
10 км ясно +2.1 -4.0 64 +1 +1 прохладно 1020.5 1000.8
03 26.04 ЮВ 2-3
{4}
10 км ясно +3.8 -5.4 51 +2 +3 прохладно 1020.9 1001.3 +2.1
06 26.04 Ю 3-6
{6}
10 км 9/0
[Ci fib]
+9.1 -3.8 40 +7 +13 по сезону 1020.3 1001.1
09 26.04 Ю 3-10
{11}
10 км 10/0
[Ac cast Cc]
+13.4 -4.7 28 +13 +18 тепло 1019.3 1000.4
12 26.04 Ю 3-10
{11}
10 км 8/3 600 м
[Cu hum Ci fib]
+15.1 -2.7 29 +15 +19 тепло 1017.2 998.4
15 26.04 Ю 4-9
{11}
10 км 10/0
[As op]
+14.4 -1.7 33 +13 +14 тепло 1015.0 996.2 +15.6
18 26.04 Ю 2-7
{10}
10 км 9/0
[Ci]
+13.6 +0.2 40 +13 +13 тепло 1014.1 995.3
21 26.04 ЮЗ 3-8
{10}
10 км 9/0
[Ac trans Ci fib]
+13.3 -0.9 37 +12 +12 тепло 1013.4 994.6
00 27.04 ЮЗ 3-9
{11}
10 км 9/0
[Ac trans Ci fib]
+12.7 +0.2 42 +12 +12 тепло 1013.6 994.8
03 27.04 ЮЗ 3-8
{11}
10 км 10/10 1000 м
[Sc]
+12.3 0.0 43 +11 +11 тепло 1014.4 995.5 +12.3
06 27.04 ЮЗ 3-8
{10}
10 км 10/8 1000 м
[Sc As op]
+13.3 +1.1 43 +12 +13 тепло 1015.5 996.7
09 27.04 ЮЗ 2-5
{11}
10 км слабый дождь 10/10 300 м
[Sc]
+11.3 +4.6 63 +10 +10 по сезону 1017.1 998.1
12 27.04 ЮЗ 2-4
{7}
10 км {дождь} 10/8 600 м
[Sc Ac trans]
+10.0 +8.5 90 +8 +9 прохладно 1017.5 998.4
15 27.04 Ю 1-4
{7}
10 км 10/3 1000 м
[Sc Ac As]
+12.0 +5.3 64 +12 +12 по сезону 1015.0 996.1 +13.3 1
18 27.04 Ю 2-5
{6}
10 км 8/0
[Ac trans]
+14.6 +1.9 42 +15 +15 тепло 1014.1 995.4
21 27.04 З 2-4
{8}
10 км 3/0
[Ac trans]
+14.2 -0.5 36 +14 +14 тепло 1014.4 995.7
00 28.04 СЗ 1-2
{6}
10 км 6/0
[Ac trans Ci fib]
+7.2 +5.5 89 +6 +6 по сезону 1016.7 997.5
03 28.04 СЗ 2-3
{3}
10 км 10/0
[As op]
+6.3 +5.2 93 +4 +4 прохладно 1018.4 999.1 +5.8
06 28.04 С 2-4
{5}
10 км 10/0
[Ac As]
+6.6 +4.0 83 +4 +7 прохладно 1019.7 1000.3
09 28.04 С 1-3
{4}
10 км слабый дождь 10/10 300 м
[Frnb]
+5.7 +4.5 92 +4 +4 холодно 1022.1 1002.6
12 28.04 С 1-3
{4}
10 км слабый дождь 10/10 300 м
[Frnb]
+5.1 +4.2 94 +4 +4 очень
холодно
1023.4 1003.9
15 28.04 СВ 2-3
{4}
10 км слабый дождь 10/10 300 м
[Frnb]
+5.4 +4.7 95 +3 +3 очень
холодно
1024.0 1004.5 +6.8 3
18 28.04 В 2-4
{5}
10 км {дождь} 10/10 300 м
[St]
+5.1 +3.9 92 +2 +2 холодно 1025.1 1005.6
21 28.04 В 3-6
{7}
10 км 10/6 600 м
[Sc As op]
+5.3 +3.6 89 +2 +2 прохладно 1025.1 1005.6
00 29.04 В 3-6
{7}
10 км 10/0
[Ac und]
+5.2 +3.5 89 +2 +2 прохладно 1024.2 1004.7
03 29.04 В 3-7
{7}
10 км 10/0
[As op Ci sp]
+5.4 +4.0 91 +2 +2 прохладно 1024.2 1004.7 +5.0

 

Местоположение метеостанции Нижний Новгород (Нижегородская область, Россия): широта 56.27 долгота 44.00 высота над уровнем моря 157 м.

В архиве по умолчанию представлена погода в Нижнем Новгороде за последнюю неделю. Архивные данные за месяц целиком и за предыдущие месяцы, начиная с января 2011 года, Вы можете получить, выбрав интересующий диапазон дат из раскрывающегося списка и нажав кнопку "Ввод!".

Внимание! Время в таблицах - всемирное. Для получения местного времени необходимо прибавить поправку, которая в Нижнем Новгороде равна 3 ч.

Смотрите также архив погоды в соседних городах и на ближайших метеорологических станциях:

Погода в Нижнем Новгороде аэропорт (Нижегородская область, Россия) (15 км)
Погода в Дальнем Константиново (Нижегородская область, Россия) (53 км)
Погода в Волжской ГМО (Нижегородская область, Россия) (57 км)
Погода в Семенове (Нижегородская область, Россия) (60 км)
Погода в Павлово (Нижегородская область, Россия) (70 км)
Погода в Лысково (Нижегородская область, Россия) (70 км)
Погода в Арзамасе (Нижегородская область, Россия) (101 км)
Погода в Воскресенском (Нижегородская область, Россия) (106 км)
Погода в Вязниках (Владимирская область, Россия) (113 км)
Погода в Красных Баках (Нижегородская область, Россия) (119 км)

Пояснения к столбцам:

Ветер - указаны скорость ветра в м/с - средняя за 10 мин, порывы в срок и между сроками (в фигурных скобках) и направление, откуда дует ветер: С - северный, СВ - северо-восточный, В - восточный, ЮВ - юго-восточный, Ю - южный, ЮЗ - юго-западный, З - западный, СЗ - северо-западный.
Видимость - горизонтальная дальность видимости в метрах или километрах. При видимости от 1 до 10 км при отсутствии осадков обычно наблюдается дымка, при ухудшении видимости до 1 км и менее - туман. В сухую погоду видимость может ухудшаться дымом, пылью или мглою.
Явления - указаны атмосферные явления, наблюдавшиеся в срок или в последний час перед сроком; фигурными скобками обозначены явления, наблюдавшиеся между сроками (за 1-3 часа до срока); квадратными скобками обозначены град или гололедные отложения с указанием их диаметра в мм.
Облачность - указаны через наклонную черту общая и нижняя облачность в баллах и высота нижней границы облаков в метрах; квадратными скобками обозначены формы облаков: Ci - перистые, Cs - перисто-слоистые, Cc - перисто-кучевые, Ac - высококучевые, As - высокослоистые, Sc - слоисто-кучевые, Ns - слоисто-дождевые, Cu - кучевые, Cb - кучево-дождевые. Подробнее классификацию облаков см. в Атласе облаков (PDF).
T - Температура воздуха - температура, измеренная на высоте 2 м над землей.
Td - Температура точки росы - температура, при понижении до которой содержащийся в воздухе водяной пар достигнет насыщения.
f - Относительная влажность воздуха - влажноcть воздуха, измеренная на высоте 2 м над землей.
Te - Эффективная температура - температура, которую ощущает одетый по сезону человек в тени. Характеристика душности погоды. При расчете учитывается влияние влажности воздуха и скорости ветра на теплоощущения человека.
Tes - Эффективная температура на солнце - температура, которую ощущает человек, с поправкой на солнечный нагрев. Характеристика знойности погоды. Зависит от высоты солнца над горизонтом, облачности и скорости ветра. Ночью, в пасмурную погоду, а также при ветре 12 м/с и более поправка равна нулю.
P - Атмосферное давление - приведенное к уровню моря атмосферное давление.
Po - Атмосферное давление - измеренное на уровне метеостанции атмосферное давление.
Tmin - Минимальная температура - минимум температуры воздуха на высоте 2 м над землей.
Tmax - Максимальная температура - максимум температуры воздуха на высоте 2 м над землей.
R - Количество осадков - Количество выпавших осадков за период времени, мм. При наведении курсора мыши на число - период времени, за который выпало указанное количество осадков.
R24 - Количество осадков - Количество выпавших осадков за 24 часа, мм.
S - Снежный покров - Высота снежного покрова, см. При наведении курсора мыши на число - состояние снежного покрова и степень покрытия местности в баллах.